Terug naar catalogus

NOAA 16 DEB

ActiefSSO
NORAD 42408·DEBRIS·🇺🇸 United States

Gelanceerd Sep 21, 2000 vanaf Vandenberg Space Force Base

Loading…

Volgende Passages (komende 24 uur)

TLE

VersSource: Space-Track

Epoch: Sep 14, 2026, 03:16 UTC

1 42408U 00055TC  26257.13625443  .00002131  00000-0  93254-3 0  9991
2 42408  98.7164 317.2173 0016164 258.3022 101.6343 14.24746134540439

Volg NOAA 16 DEB in realtime met AllMySat

Download on the App Store